User: anonymous   Login
Location: Arthez
(43.0833°N, 0.2500°W)
Time: 16:08:18
(UTC+00:00)
Language:

Cosmos 1697 Rocket - Orbit

View from above orbital plane
View from above orbital plane
View from above satellite
View from above satellite

Ground track
Ground track

The orbit data is extracted from the following two-line orbital elements,

1 16182U 85097B   22021.87687631 -.00000191  00000-0 -72289-4 0  9995
2 16182  71.0027  73.9462 0006475  16.9272 155.5307 14.16264562873716
Epoch (UTC): 21 January 2022 21:02:42
Eccentricity: 0.0006475
inclination: 71.0027°
perigee height: 833 km
apogee height: 842 km
right ascension of ascending node: 73.9462°
argument of perigee: 16.9272°
revolutions per day: 14.16264562
mean anomaly at epoch: 155.5307°
orbit number at epoch: 87371

The dashed part of the orbit path shows where the satellite is in the earth's shadow,  

DLR